Madison, SD

11:05 AM CDT on April 21, 2018 (GMT -0500)
Madison Municipal

Weather History for KMDS - January, 2013

Change the Weather History Date:

Wednesday, January 30, 2013

  Actual Average Record
Temperature  
Mean Temperature 14 °F -  
Max Temperature 19 °F 25 °F 50 °F (2012)
Min Temperature 8 °F 3 °F -7 °F (2011)
Degree Days  
Heating Degree Days 52    
Moisture  
Dew Point 14 °F    
Average Humidity 100    
Maximum Humidity 100    
Minimum Humidity 100    
Precipitation  
Precipitation 0.54 in - - ()
Sea Level Pressure  
Sea Level Pressure 29.80 in    
Wind  
Wind Speed 23 mph (NNW)    
Max Wind Speed 26 mph    
Max Gust Speed 34 mph    
Visibility 10 miles    
Events Rain , Snow    
Averages and records for this station are not official NWS values.
T = Trace of Precipitation, MM = Missing Value Source: NWS Daily Summary

Daily Weather History Graph

Daily Weather History Graph

Search for Another Location

Airport or City:

Astronomy

Jan. 30, 2013 Rise Set
Actual Time 7:47 AM CST 5:36 PM CST
Civil Twilight 7:16 AM CST 6:07 PM CST
Nautical Twilight 6:42 AM CST 6:41 PM CST
Astronomical Twilight 6:08 AM CST 7:15 PM CST
Moon 9:47 PM CST (1/30) 9:06 AM CST (1/30)
Length of Visible Light 10h 50m
Length of Day
9h 48m
Waning Gibbous, 87% of the Moon is Illuminated
Jan 30
Waning Gibbous
Feb 3
Last Quarter
Feb 10
New
Feb 17
First Quarter
Feb 25
Full

Hourly Weather History & Observations

Time (CST) Temp. Windchill Dew Point Humidity Pressure Visibility Wind Dir Wind Speed Gust Speed Precip Events Conditions
12:00 AM 19.4 °F 1.8 °F 19.4 °F 100% 29.81 in 10.0 mi North 25.3 mph 32.2 mph 0.01 in Rain Light Freezing Rain
12:20 AM 19.4 °F 2.8 °F 19.4 °F 100% 29.82 in 5.0 mi North 21.9 mph 29.9 mph N/A Rain Light Freezing Rain
12:40 AM 19.4 °F 2.5 °F 19.4 °F 100% 29.81 in 10.0 mi North 23.0 mph 28.8 mph N/A Snow Light Snow
1:00 AM 19.4 °F 2.8 °F 19.4 °F 100% 29.79 in 10.0 mi North 21.9 mph 29.9 mph 0.01 in Snow Light Snow
1:20 AM 19.4 °F 1.8 °F 19.4 °F 100% 29.78 in 9.0 mi North 25.3 mph 32.2 mph 0.01 in Snow Light Snow
1:40 AM 19.4 °F 3.2 °F 19.4 °F 100% 29.78 in 10.0 mi North 20.7 mph 29.9 mph 0.01 in Snow Light Snow
2:00 AM 19.4 °F 2.8 °F 19.4 °F 100% 29.78 in 10.0 mi North 21.9 mph 29.9 mph 0.02 in Snow Light Snow
2:20 AM 19.4 °F 2.5 °F 19.4 °F 100% 29.79 in 10.0 mi North 23.0 mph 29.9 mph 0.01 in Snow Light Snow
2:40 AM 19.4 °F 2.5 °F 19.4 °F 100% 29.79 in 8.0 mi North 23.0 mph 31.1 mph 0.04 in Snow Light Snow
3:00 AM 19.4 °F 1.8 °F 19.4 °F 100% 29.79 in 10.0 mi North 25.3 mph 31.1 mph 0.05 in Snow Light Snow
3:20 AM 17.6 °F -0.6 °F 17.6 °F 100% 29.78 in 10.0 mi North 25.3 mph 34.5 mph 0.01 in Snow Light Snow
3:40 AM 17.6 °F -1.0 °F 17.6 °F 100% 29.79 in 10.0 mi NNW 26.5 mph 31.1 mph 0.01 in Snow Light Snow
4:00 AM 17.6 °F -0.6 °F 17.6 °F 100% 29.80 in 10.0 mi North 25.3 mph 29.9 mph 0.02 in Snow Light Snow
4:20 AM 15.8 °F -3.4 °F 15.8 °F 100% 29.80 in 10.0 mi North 26.5 mph 32.2 mph N/A Rain Light Freezing Rain
4:40 AM 15.8 °F -1.9 °F 15.8 °F 100% 29.81 in 10.0 mi North 21.9 mph 27.6 mph N/A Rain Light Freezing Rain
5:00 AM 15.8 °F -2.3 °F 15.8 °F 100% 29.81 in 10.0 mi North 23.0 mph 31.1 mph 0.01 in Snow Light Snow
5:20 AM 15.8 °F -0.6 °F 15.8 °F 100% 29.81 in 10.0 mi North 18.4 mph 32.2 mph 0.02 in Snow Light Snow
5:40 AM 15.8 °F -0.6 °F 15.8 °F 100% 29.81 in 9.0 mi North 18.4 mph 24.2 mph 0.06 in Snow Light Snow
6:00 AM 15.8 °F -1.5 °F 15.8 °F 100% 29.80 in 10.0 mi North 20.7 mph 27.6 mph 0.10 in Snow Light Snow
6:20 AM 15.8 °F -1.1 °F 15.8 °F 100% 29.80 in 10.0 mi North 19.6 mph 25.3 mph 0.01 in Snow Light Snow
6:40 AM 14.0 °F -3.9 °F 14.0 °F 100% 29.81 in 7.0 mi North 20.7 mph 28.8 mph 0.10 in Snow Light Snow
7:00 AM 14.0 °F -5.1 °F 14.0 °F 100% 29.81 in 10.0 mi NNW 24.2 mph 28.8 mph 0.12 in Snow Light Snow
7:20 AM 14.0 °F -3.4 °F 14.0 °F 100% 29.81 in 10.0 mi NNW 19.6 mph 26.5 mph 0.01 in Snow Light Snow
7:40 AM 14.0 °F -3.9 °F 14.0 °F 100% 29.81 in 10.0 mi NNW 20.7 mph 25.3 mph 0.02 in Snow Light Snow
8:00 AM 14.0 °F -5.5 °F 14.0 °F 100% 29.81 in 10.0 mi NW 25.3 mph 31.1 mph 0.04 in Snow Light Snow
8:20 AM 14.0 °F -5.5 °F 14.0 °F 100% 29.82 in 9.0 mi NNW 25.3 mph 31.1 mph 0.03 in Snow Light Snow
8:40 AM 12.2 °F -7.9 °F 12.2 °F 100% 29.82 in 10.0 mi NNW 25.3 mph 34.5 mph 0.04 in Snow Light Snow
9:00 AM 12.2 °F -7.1 °F 12.2 °F 100% 29.81 in 9.0 mi NW 23.0 mph 29.9 mph 0.07 in Snow Light Snow
9:20 AM 10.4 °F -9.5 °F 10.4 °F 100% 29.81 in 10.0 mi NNW 23.0 mph 33.4 mph 0.01 in Snow Light Snow
9:40 AM 10.4 °F -9.5 °F 10.4 °F 100% 29.81 in 10.0 mi NNW 23.0 mph 28.8 mph 0.02 in Snow Light Snow
10:00 AM 10.4 °F -9.5 °F 10.4 °F 100% 29.81 in 10.0 mi NNW 23.0 mph - 0.03 in Rain Light Freezing Rain
10:20 AM 10.4 °F -9.5 °F 10.4 °F 100% 29.81 in 10.0 mi NW 23.0 mph 29.9 mph N/A Rain Light Freezing Rain
10:40 AM 10.4 °F -9.5 °F 10.4 °F 100% 29.82 in 10.0 mi NW 23.0 mph 26.5 mph N/A Rain Light Freezing Rain
11:00 AM 8.6 °F -11.4 °F 8.6 °F 100% 29.83 in 10.0 mi NW 21.9 mph 26.5 mph N/A Rain Light Freezing Rain
11:20 AM 10.4 °F -9.5 °F 10.4 °F 100% 29.83 in 10.0 mi NW 23.0 mph 26.5 mph N/A Rain Light Freezing Rain
11:40 AM 10.4 °F -8.6 °F 10.4 °F 100% 29.82 in 10.0 mi NW 20.7 mph 28.8 mph N/A   Overcast
12:00 PM 10.4 °F -8.2 °F 10.4 °F 100% 29.81 in 10.0 mi NW 19.6 mph 24.2 mph N/A   Overcast
12:20 PM 10.4 °F -8.2 °F 10.4 °F 100% 29.81 in 10.0 mi NW 19.6 mph - N/A Snow Light Snow
12:40 PM 10.4 °F -6.0 °F 10.4 °F 100% 29.80 in 10.0 mi NNW 15.0 mph - N/A Snow Light Snow
1:00 PM 10.4 °F -7.7 °F 10.4 °F 100% 29.80 in 10.0 mi NW 18.4 mph 24.2 mph N/A Snow Light Snow
1:20 PM 10.4 °F -8.2 °F 10.4 °F 100% 29.80 in 9.0 mi NW 19.6 mph - N/A Snow Light Snow
1:40 PM 10.4 °F -7.2 °F 10.4 °F 100% 29.79 in 10.0 mi NW 17.3 mph 24.2 mph N/A   Overcast
2:00 PM 8.6 °F -9.5 °F 8.6 °F 100% 29.79 in 10.0 mi NW 17.3 mph 23.0 mph N/A   Overcast
2:20 PM 10.4 °F -7.7 °F 10.4 °F 100% 29.80 in 10.0 mi NW 18.4 mph 23.0 mph N/A Snow Light Snow
2:25 PM 10.4 °F -8.2 °F 10.4 °F 100% 29.80 in 10.0 mi NW 19.6 mph 23.0 mph N/A   Mostly Cloudy